Wind_Speed
1 1 2 2 2 2 3 4 4 4 5 5 5 5 5 6 6 6 6 6 7 7 8 8 9 8 8 8 8 8 8 8 8 8 8 7 7 7 6 7 6 6 6
2 2 3 3 3 3 4 5 5 5 6 6 6 6 6 6 7 6 7 7 8 8 8 9 9 9 9 9 8 8 9 9 9 8 8 8 8 8 8 8 8 7 7
3 3 4 4 4 4 5 6 6 6 7 7 7 7 7 7 7 7 8 8 8 9 9 9 9 9 9 9 9 9 9 10 9 9 9 9 9 9 9 9 9 9 9
4 4 5 5 5 5 6 6 7 7 8 8 8 8 8 8 8 8 9 9 9 9 9 10 9 9 9 9 9 10 10 10 10 10 10 10 10 10 10 10 10 10 10
5 5 6 6 6 6 7 6 7 8 8 8 9 9 8 8 9 9 9 9 10 9 9 10 10 10 10 10 10 10 10 10 10 11 11 11 11 10 11 10 10 11 10
6 6 7 7 7 7 7 7 8 8 9 9 9 9 9 9 9 9 10 10 9 9 10 10 10 10 10 10 10 10 10 10 10 11 11 11 10 10 11 11 11 11 11
6 7 7 7 8 8 8 8 8 8 8 9 9 10 10 10 10 11 11 11 10 10 10 10 10 11 10 10 10 10 10 10 10 10 10 10 10 10 10 11 11 11 11
7 7 7 8 8 8 8 8 8 9 9 9 9 9 10 10 11 11 11 11 11 11 11 11 11 10 10 10 10 10 9 10 10 9 9 9 10 11 11 11 11 11 11
7 7 8 8 8 8 8 9 9 9 9 9 9 10 10 10 11 11 12 11 11 11 11 11 11 10 9 9 9 10 9 10 10 10 10 10 10 10 11 11 11 11 11
7 7 7 8 8 8 8 8 9 9 9 10 10 10 10 10 11 11 11 11 11 10 10 10 10 10 9 9 9 9 9 10 11 10 10 10 10 10 10 10 11 11 11
7 7 7 7 7 8 8 8 9 9 9 9 9 10 9 10 10 10 10 10 10 9 9 9 9 10 9 9 10 10 9 10 10 10 10 10 10 10 9 9 9 10 10
7 8 8 7 8 8 8 8 8 9 9 9 9 9 9 9 9 9 9 9 9 9 8 9 9 9 8 9 9 9 9 9 9 9 9 8 9 9 9 8 8 9 10
8 8 8 8 9 8 9 9 9 9 9 9 9 8 8 8 8 8 8 8 8 8 8 8 8 8 8 8 8 8 8 9 9 9 9 8 9 9 8 8 9 9 9
8 8 9 9 9 8 9 9 9 9 9 9 8 8 8 8 8 8 7 7 8 8 8 8 8 8 8 8 8 8 7 7 8 8 8 8 8 8 8 8 8 9 9
9 9 9 9 9 9 9 9 9 9 9 8 8 8 8 8 8 7 7 7 7 8 8 8 8 8 8 8 8 7 7 7 7 7 7 8 7 7 7 7 7 8 8
9 10 10 10 9 9 9 10 9 9 8 7 7 7 7 7 7 7 7 7 7 7 7 7 8 8 7 7 8 7 7 7 6 6 6 6 7 7 7 7 7 8 8
9 10 10 10 9 9 9 9 9 9 8 7 7 7 6 6 6 6 6 6 7 7 7 7 8 8 7 7 7 7 7 7 6 6 6 5 5 6 6 6 7 7 7
9 9 9 9 9 9 9 9 9 8 8 7 7 7 6 6 6 6 6 6 6 6 6 7 8 7 7 7 7 6 6 6 6 6 6 5 5 5 5 6 6 6 7
10 9 9 9 9 9 8 8 8 8 7 6 6 6 6 6 6 6 6 5 6 6 6 6 7 7 7 6 7 6 6 6 6 6 6 5 5 5 5 5 5 6 6
10 10 9 9 9 8 7 7 7 7 7 6 6 6 6 6 6 6 6 5 5 5 5 6 6 6 6 6 6 6 6 6 5 5 5 4 4 4 4 5 5 5 6
10 10 9 9 9 8 7 7 7 7 6 6 6 6 6 6 6 6 5 5 5 5 5 5 5 6 6 6 6 6 6 5 5 5 5 4 4 4 5 4 4 4 5
10 9 9 9 9 8 7 7 7 6 6 6 6 6 6 6 6 6 6 6 6 6 5 5 6 6 6 6 6 6 5 5 5 5 5 5 4 4 4 3 3 4 4
10 9 10 9 9 9 8 7 7 6 6 6 6 6 6 6 6 7 6 6 6 6 6 6 6 6 6 6 5 5 4 4 4 4 4 4 4 4 3 3 4 4 5
10 10 10 10 9 8 8 7 7 7 7 6 6 5 5 6 6 6 6 6 6 7 6 6 7 7 7 6 5 5 4 3 3 3 4 4 4 4 3 3 4 4 5
10 10 10 10 9 8 7 7 7 7 7 7 6 6 6 6 6 7 7 6 6 7 7 7 7 7 7 7 6 5 5 4 4 3 3 3 3 4 3 4 4 4 5
10 10 10 9 8 8 7 7 7 7 7 6 7 7 7 7 7 8 8 7 7 7 7 7 7 7 7 7 6 6 5 5 5 4 4 4 4 4 4 5 5 5 5
Wind_Direction
354 348 308 303 301 289 283 277 271 266 263 268 269 275 271 263 262 259 254 255 255 258 258 256 252 250 246 246 252 250 250 252 255 256 256 256 257 260 258 261 261 260 260
313 323 303 296 290 288 282 275 264 262 266 267 269 273 274 269 262 261 261 261 258 257 256 257 257 258 252 249 256 258 254 253 252 256 256 256 257 259 259 260 261 261 261
309 309 298 294 290 287 286 278 268 265 267 266 269 273 274 271 265 262 262 264 267 261 255 255 257 261 259 258 262 263 260 255 252 255 255 257 257 261 262 263 262 263 264
304 305 295 292 294 293 288 278 269 268 267 266 266 269 271 270 269 268 265 263 267 263 256 254 258 258 259 261 264 265 263 256 255 259 258 259 260 262 263 262 261 262 262
295 296 294 290 291 290 286 280 272 269 268 268 268 268 267 270 271 270 267 265 266 262 261 260 259 258 259 261 266 267 264 258 256 260 261 260 261 264 263 262 262 261 261
295 292 294 291 294 292 285 282 278 274 271 272 271 269 269 271 271 269 267 265 264 262 261 263 264 263 262 264 268 267 262 259 258 259 258 258 261 264 263 263 263 262 261
299 295 293 290 292 290 287 284 279 276 276 273 273 270 269 270 270 270 269 265 266 265 261 264 268 265 264 265 268 266 261 262 259 259 260 259 259 262 264 265 262 262 263
299 298 292 289 290 287 285 283 279 278 278 275 274 272 270 272 272 271 270 267 267 263 262 265 267 269 271 269 268 265 263 259 256 259 261 261 262 265 266 267 265 264 264
298 293 292 288 288 285 284 285 285 282 279 277 275 272 270 271 272 272 268 266 266 266 264 264 265 268 271 270 269 266 263 262 256 257 261 263 264 267 267 266 265 265 266
301 293 288 286 286 285 285 286 286 285 282 278 277 274 270 271 273 274 269 267 266 265 263 260 265 265 268 268 269 269 266 264 260 261 265 263 264 267 268 269 268 267 266
299 295 290 286 286 285 286 286 287 287 284 280 277 274 272 274 275 275 269 266 264 262 261 259 259 260 262 264 265 267 265 266 264 262 264 264 267 269 268 270 270 269 271
299 294 287 288 287 287 289 288 289 289 286 281 279 276 273 273 275 275 273 267 262 261 259 258 256 255 257 261 262 263 264 267 265 261 261 264 265 268 269 270 270 273 275
305 299 290 290 288 289 290 291 291 289 286 283 277 274 272 270 271 271 271 267 261 258 258 256 255 254 259 259 257 259 262 262 262 261 260 261 264 268 268 270 272 275 278
306 307 298 292 287 286 289 292 293 291 289 282 275 275 272 267 268 269 268 265 261 257 254 251 254 256 257 254 250 254 258 258 260 259 261 264 268 266 267 272 275 276 279
308 307 299 290 288 288 289 292 294 291 288 281 274 271 268 266 269 266 265 262 260 254 249 248 252 255 254 248 243 248 254 254 254 257 262 268 269 268 272 273 278 280 282
309 304 300 294 290 289 290 294 293 290 288 284 277 274 270 268 267 266 262 262 260 254 248 248 250 251 249 245 240 244 247 248 253 256 258 264 265 267 271 272 277 282 285
308 301 302 297 293 291 291 290 290 290 287 283 280 275 271 268 264 267 261 263 263 257 252 250 249 248 246 244 241 241 244 247 255 257 257 269 269 275 282 276 279 286 288
313 308 305 301 296 292 291 288 288 286 289 286 278 271 267 262 262 260 259 264 263 258 255 252 246 244 238 234 234 237 243 245 250 257 262 269 277 280 283 284 285 293 293
316 312 307 304 302 297 293 292 290 287 286 286 279 275 268 258 258 260 261 261 260 256 251 250 245 240 231 228 228 231 239 249 254 258 266 273 276 281 281 285 288 295 298
317 314 309 306 304 302 300 297 294 291 285 281 279 278 272 261 254 253 258 262 255 252 250 249 244 232 228 231 229 234 239 248 254 258 267 271 274 283 294 295 296 296 299
316 313 306 306 307 304 304 300 296 292 289 286 283 277 271 259 249 249 255 257 249 249 248 243 237 230 230 231 231 236 242 248 250 257 264 273 273 278 291 300 304 308 310
310 309 302 300 300 299 298 297 295 294 292 288 287 278 268 260 250 249 254 252 244 242 246 245 236 234 230 229 230 236 243 245 250 256 261 267 272 283 297 311 314 320 322
303 304 301 297 292 292 293 292 288 289 296 293 283 276 267 258 250 248 250 247 241 238 242 244 233 231 227 228 230 233 241 242 247 247 253 265 276 283 291 301 307 313 316
300 299 298 297 294 288 284 285 286 285 288 287 280 271 265 254 245 244 242 242 238 236 235 234 235 233 229 226 228 236 242 244 243 246 253 263 275 285 287 294 304 312 315
295 294 294 293 292 286 280 282 284 280 279 279 274 266 260 254 250 246 241 240 240 238 236 231 231 230 229 229 234 237 240 241 243 250 256 264 277 285 286 296 306 313 320
290 288 287 288 284 279 276 281 284 281 278 278 273 261 254 251 247 243 238 239 239 239 238 234 232 229 231 234 236 236 241 242 243 251 257 266 277 282 288 298 304 308 314
Height
5887 5886 5886 5885 5885 5885 5885 5885 5885 5885 5885 5885 5885 5884 5884 5884 5884 5884 5884 5883 5883 5883 5883 5883 5882 5882 5882 5882 5882 5882 5882 5882 5882 5882 5882 5882 5882 5882 5882 5881 5881 5881 5881
5886 5886 5885 5885 5884 5884 5884 5884 5884 5884 5884 5884 5884 5883 5883 5883 5883 5883 5883 5882 5882 5882 5882 5881 5881 5881 5881 5881 5881 5881 5881 5881 5881 5881 5880 5880 5880 5880 5880 5880 5880 5880 5880
5885 5884 5884 5884 5884 5883 5883 5883 5883 5883 5883 5882 5882 5882 5882 5882 5881 5881 5881 5881 5881 5880 5880 5880 5880 5880 5880 5880 5879 5879 5879 5879 5879 5879 5879 5879 5879 5879 5879 5879 5878 5878 5878
5884 5883 5883 5883 5882 5882 5882 5882 5881 5881 5881 5881 5881 5881 5880 5880 5880 5880 5880 5879 5879 5879 5878 5878 5878 5878 5878 5878 5878 5878 5878 5877 5877 5877 5877 5877 5877 5877 5877 5877 5877 5877 5876
5882 5882 5882 5881 5881 5881 5880 5880 5880 5880 5879 5879 5879 5879 5879 5878 5878 5878 5878 5878 5877 5877 5877 5877 5877 5876 5876 5876 5876 5876 5876 5875 5875 5875 5875 5876 5875 5875 5875 5875 5875 5875 5875
5881 5880 5880 5880 5879 5879 5879 5878 5878 5878 5877 5877 5877 5877 5876 5876 5876 5876 5876 5876 5875 5875 5875 5875 5875 5875 5875 5875 5874 5874 5874 5873 5873 5873 5873 5873 5873 5873 5873 5873 5873 5873 5872
5879 5878 5878 5878 5878 5877 5877 5877 5876 5876 5876 5875 5875 5874 5874 5874 5874 5874 5873 5873 5873 5873 5873 5873 5872 5872 5873 5873 5872 5872 5872 5871 5871 5871 5871 5871 5871 5871 5871 5871 5871 5871 5870
5877 5877 5876 5876 5876 5875 5875 5875 5875 5874 5873 5873 5873 5872 5872 5871 5871 5871 5871 5871 5870 5870 5870 5870 5870 5870 5870 5870 5870 5870 5869 5869 5869 5869 5869 5869 5869 5869 5869 5868 5868 5868 5868
5876 5875 5875 5874 5874 5873 5873 5873 5872 5872 5871 5871 5870 5870 5869 5869 5869 5868 5868 5868 5868 5868 5868 5868 5868 5868 5868 5868 5867 5867 5867 5867 5867 5867 5867 5867 5867 5867 5866 5866 5866 5866 5866
5874 5873 5873 5872 5872 5871 5871 5871 5870 5870 5869 5868 5868 5867 5867 5866 5866 5866 5865 5865 5865 5865 5865 5865 5865 5865 5866 5866 5865 5865 5865 5865 5865 5865 5865 5865 5865 5864 5864 5864 5864 5863 5863
5872 5872 5871 5870 5870 5870 5869 5869 5868 5867 5866 5866 5865 5865 5864 5864 5864 5863 5863 5863 5863 5863 5863 5863 5863 5863 5864 5863 5863 5863 5863 5863 5863 5863 5863 5863 5863 5862 5862 5862 5861 5861 5861
5871 5870 5869 5869 5868 5868 5867 5867 5866 5865 5864 5863 5863 5862 5862 5862 5861 5861 5860 5860 5860 5860 5861 5860 5861 5861 5861 5861 5861 5861 5861 5861 5861 5861 5861 5861 5860 5860 5860 5860 5859 5859 5859
5869 5868 5867 5867 5866 5866 5865 5864 5863 5862 5862 5861 5860 5860 5860 5859 5859 5859 5858 5858 5858 5858 5858 5858 5858 5859 5859 5859 5859 5859 5859 5859 5859 5859 5859 5858 5858 5858 5858 5858 5857 5857 5857
5867 5866 5865 5865 5864 5863 5863 5862 5861 5860 5859 5858 5858 5858 5857 5857 5856 5856 5856 5856 5856 5856 5856 5856 5856 5857 5857 5857 5857 5857 5857 5857 5857 5857 5857 5857 5856 5856 5856 5856 5855 5855 5855
5865 5864 5864 5863 5862 5862 5861 5860 5859 5858 5857 5857 5856 5855 5855 5855 5854 5854 5854 5854 5854 5854 5854 5854 5854 5855 5855 5855 5855 5855 5855 5855 5855 5855 5855 5855 5855 5855 5854 5854 5853 5853 5853
5864 5862 5861 5860 5860 5859 5858 5857 5857 5856 5855 5855 5854 5853 5853 5852 5852 5852 5852 5852 5852 5852 5852 5852 5852 5853 5853 5853 5854 5854 5854 5854 5854 5854 5854 5854 5854 5853 5852 5852 5852 5851 5851
5861 5860 5859 5858 5857 5857 5856 5855 5854 5854 5853 5852 5852 5851 5851 5850 5850 5850 5850 5850 5850 5850 5850 5850 5850 5851 5851 5852 5852 5852 5852 5852 5853 5853 5852 5852 5852 5851 5851 5850 5850 5849 5849
5859 5858 5857 5856 5855 5854 5854 5853 5852 5851 5851 5850 5850 5849 5849 5849 5848 5848 5848 5848 5848 5848 5848 5848 5849 5849 5850 5850 5851 5851 5851 5851 5851 5851 5851 5851 5851 5850 5849 5849 5848 5848 5847
5857 5856 5855 5854 5853 5852 5851 5851 5850 5849 5849 5848 5848 5847 5847 5847 5847 5847 5847 5847 5847 5847 5847 5847 5847 5848 5849 5849 5849 5850 5850 5850 5850 5850 5850 5850 5849 5849 5848 5848 5847 5846 5846
5855 5854 5853 5852 5851 5850 5849 5849 5848 5847 5847 5846 5846 5846 5845 5845 5845 5845 5845 5845 5845 5845 5846 5846 5846 5847 5847 5848 5848 5849 5849 5849 5849 5849 5849 5849 5848 5848 5848 5847 5846 5845 5845
5853 5852 5851 5850 5849 5848 5847 5847 5846 5846 5845 5845 5844 5844 5844 5844 5844 5844 5844 5844 5844 5844 5845 5845 5846 5846 5846 5847 5847 5848 5848 5848 5848 5848 5848 5848 5847 5847 5847 5846 5845 5844 5844
5851 5850 5849 5848 5847 5846 5846 5845 5844 5844 5843 5843 5843 5842 5842 5842 5842 5842 5843 5843 5843 5843 5844 5844 5845 5845 5846 5846 5846 5847 5847 5848 5847 5847 5847 5847 5847 5846 5846 5845 5844 5844 5843
5849 5848 5847 5846 5845 5845 5844 5843 5843 5842 5842 5841 5841 5841 5840 5840 5841 5841 5841 5841 5842 5842 5842 5843 5843 5844 5845 5845 5846 5846 5846 5846 5846 5847 5846 5846 5846 5845 5845 5844 5843 5843 5842
5847 5846 5845 5844 5843 5843 5842 5841 5841 5841 5840 5840 5839 5839 5839 5839 5839 5840 5840 5840 5840 5841 5841 5841 5842 5843 5844 5844 5845 5845 5846 5845 5846 5846 5846 5845 5845 5844 5844 5843 5843 5842 5841
5844 5843 5842 5842 5841 5840 5840 5840 5839 5839 5838 5838 5837 5838 5838 5838 5838 5838 5838 5839 5839 5839 5840 5840 5841 5842 5842 5843 5843 5844 5844 5845 5845 5845 5845 5845 5844 5844 5843 5842 5842 5841 5840
5842 5841 5840 5839 5838 5838 5838 5838 5837 5837 5836 5836 5836 5836 5836 5836 5836 5836 5837 5837 5838 5838 5839 5839 5840 5840 5841 5842 5842 5843 5843 5844 5844 5844 5844 5844 5843 5843 5842 5841 5841 5840 5839